Location: Nag� el Ma?a??a
(24.0667°N, 32.8833°E)
Time: 17:03:18
(UTC+00:00)

GPS 2-15 Rocket1 - Pass Details

Date: 25 September 2021
Orbit: 623 x 675 km, 19.8° (Epoch: 16 October)

Event Time Altitude Azimuth Distance (km) Brightness Sun altitude
Exits shadow 02:00:09 35° 185° (S) 1,044 4.0 -23.1°
Maximum altitude 02:00:42 36° 169° (S) 1,021 4.1 -23.0°
Drops below altitude 10° 02:05:07 10° 103° (ESE) 2,050 6.7 -22.0°
Sets 02:07:40 0° 94° (E) 2,971 8.0 -21.4°
